Regional Weather Roundup
Issued by NWS Raleigh/Durham, NC

Home | Current Version | Previous Version | Text Only | Print | Product List | Glossary On
Versions: 1 2 3 4 5 6 7 8 9 10 11 12 13 14 15 16 17 18 19 20 21 22 23 24 25 26 27 28 29 30 31 32 33 34 35 36 37 38 39 40 41 42 43 44 45 46 47 48 49 50
000
ASUS42 KRAH 272210
RWRRAH
NORTH CAROLINA WEATHER ROUNDUP
NATIONAL WEATHER SERVICE RALEIGH NC
600 PM EDT MON APR 27 2015

NOTE: "FAIR" INDICATES FEW OR NO CLOUDS BELOW 12,000 FEET WITH NO
SIGNIFICANT WEATHER AND/OR OBSTRUCTIONS TO VISIBILITY.

NCZ001-053-055-056-065-067-272300-
WESTERN NORTH CAROLINA

CITY           SKY/WX    TMP DP  RH WIND       PRES   REMARKS
ASHEVILLE      SUNNY     61  32  33 N16G26    29.87R
JEFFERSON      PTSUNNY   52  24  34 NW13G22   29.89S
MORGANTON      SUNNY     67  29  24 NW13G18   29.89R
HICKORY        SUNNY     66  31  27 NW9       29.82F
RUTHERFORDTON  SUNNY     68  32  26 NE10      29.83R
MOUNT AIRY     MOSUNNY   62  28  27 N12G20    29.89S
BOONE          SUNNY     55  25  32 N14       29.89S
$$

NCZ021-022-025-041-071-084-088-272300-
CENTRAL NORTH CAROLINA

CITY           SKY/WX    TMP DP  RH WIND       PRES   REMARKS
CHARLOTTE      MOSUNNY   69  33  26 N8        29.81S
GREENSBORO     PTSUNNY   65  30  27 N13G22    29.83S
WINSTON-SALEM  MOSUNNY   64  32  30 N15G22    29.86S
RALEIGH-DURHAM MOSUNNY   65  33  30 NW10G17   29.80F
FORT BRAGG     MOSUNNY   70  35  28 NW12      29.77F
FAYETTEVILLE   MOSUNNY   70  35  27 W13       29.77F
BURLINGTON     PTSUNNY   66  33  29 N14G23    29.82S
LAURINBURG     SUNNY     70  35  27 NW9       29.80F
$$

NCZ011-015-027-028-043-044-047-080-103-272300-
NORTHEASTERN NORTH CAROLINA

CITY           SKY/WX    TMP DP  RH WIND       PRES   REMARKS
ROCKY MT-WILSO MOSUNNY   68  34  28 NW9       29.79R
GREENVILLE     SUNNY     68  36  30 W10G16    29.80F
WASHINGTON     SUNNY     66  36  32 NW8       29.78R
ELIZABETH CITY PTSUNNY   59  41  51 E8        29.79R
MANTEO         SUNNY     57  38  50 NE10      29.79R
CAPE HATTERAS  SUNNY     58  45  62 NE12G21   29.76R
$$

NCZ078-087-090-091-093-098-101-272300-
SOUTHEASTERN NORTH CAROLINA

CITY           SKY/WX    TMP DP  RH WIND       PRES   REMARKS
LUMBERTON      SUNNY     69  40  34 NW12      29.78F
GOLDSBORO      SUNNY     69  36  29 W12       29.76F
KINSTON        MOSUNNY   68  36  30 NW8       29.78S
KENANSVILLE    SUNNY     68  35  29 NW10G17   29.80S
NEW BERN       SUNNY     69  36  29 NW10      29.78R
CHERRY POINT   MOSUNNY   68  36  30 NW13G23   29.77R
BEAUFORT       CLOUDY    66  49  54 VRB7      29.76S
JACKSONVILLE   MOSUNNY   68  39  34 NW13      29.77S
WILMINGTON     SUNNY     71  42  35 NW16G22   29.77S
$$



USA.gov is the U.S. government's official web portal to all federal, state and local government web resources and services.